Главная страница
METAR-TAF:

METAR-TAF

Аэропорты :

Кувейт, Кувейт

широта: 29-13N, долгота: 047-59E, высота над уровнем моря: 55 м

Текущие метеонаблюдения

Эта сводка был подготовлена 24 минут назад, в 02:00 UTC
Ветер 5 Узел от юго-восточный
Температура 10°C
Влажность 71%
Давление 1015 hPa
Видимость: 6000 м

METAR: OKBK 230200Z 14005KT 6000 NSC 10/05 Q1015 NOSIG

Время: 05:24 (02:24 UTC)

Прогноз

Эта сводка был подготовлена 15 часа и 39 минут назад, в 10:45 UTC
Прогноз действительный с 22-го 12 UTC до 23-го 18 UTC
Ветер 3 Узел переменных направлений
Видимость: 6000 м
изменения
С 22-го 13 UTC до 22-го 15 UTC
Ветер 10 Узел от юго-юго-восточный

TAF: OKBK 221045Z 2212/2318 VRB03KT 6000 NSC BECMG 2213/2215 15010KT

Метеонаблюдения и прогнозы для более 4000 аэропортов (сводки METAR и TAF).

Имеющиеся станции представлены на карте желтыми и красными точками.

Чтобы увидеть название станции, наведите на нее мышь.

Затем щелкните, чтобы увидеть метеонаблюдения и метеопрогнозы.

Управление картой: чтобы увеличить масштаб, щелкните зеленые кнопки с черным крестиком; чтобы уменьшить масштаб, щелкните зеленую кнопку с тире; для просмотра соседних карт щелкайте зеленые стрелки.


METAR-TAF: